This is the latest recevied weather packets stored in our database for station/object KF4LQQ-13. If no packets are shown the sender has not sent any weather packets the latest 10 day(s).
| Time | Temp. | Humidity | Pressure | Rain* | Wind** | Luminosity | Snow |
|---|---|---|---|---|---|---|---|
| 1777913119 | 26.67° C | - | 1013.9 hPa | 0 mm | - | - | - |
| 1777912519 | 26.67° C | - | 1014 hPa | 0 mm | - | - | - |
| 1777911919 | 26.11° C | - | 1014.2 hPa | 0 mm | - | - | - |
| 1777911318 | 26.11° C | - | 1014.2 hPa | 0 mm | - | - | - |
| 1777910718 | 25.56° C | - | 1014.4 hPa | 0 mm | - | - | - |
| 1777910118 | 25.56° C | - | 1014.4 hPa | 0 mm | - | - | - |
| 1777909517 | 25° C | - | 1014.5 hPa | 0 mm | - | - | - |
| 1777908917 | 25° C | - | 1014.4 hPa | 0 mm | - | - | - |
| 1777908317 | 24.44° C | - | 1014.5 hPa | 0 mm | - | - | - |
| 1777907913 | 23.33° C | - | 1014.4 hPa | 0 mm | - | - | - |
| 1777907717 | 23.89° C | - | 1014.6 hPa | 0 mm | - | - | - |
| 1777907117 | 23.89° C | - | 1014.6 hPa | 0 mm | - | - | - |
| 1777906516 | 23.89° C | - | 1014.4 hPa | 0 mm | - | - | - |
| 1777905916 | 23.33° C | - | 1014.4 hPa | 0 mm | - | - | - |
| 1777905400 | 22.78° C | - | 1014.3 hPa | 0 mm | - | - | - |
| 1777905314 | 22.78° C | - | 1014.3 hPa | 0 mm | - | - | - |
| 1777904714 | 22.78° C | - | 1014.3 hPa | 0 mm | - | - | - |
| 1777904113 | 22.22° C | - | 1014.3 hPa | 0 mm | - | - | - |
| 1777903512 | 22.22° C | - | 1014.2 hPa | 0 mm | - | - | - |
| 1777902912 | 21.67° C | - | 1014.3 hPa | 0 mm | - | - | - |
| 1777902312 | 21.67° C | - | 1014.3 hPa | 0 mm | - | - | - |
| 1777901711 | 21.11° C | - | 1014.2 hPa | 0 mm | - | - | - |
| 1777901687 | 21.11° C | - | 1014 hPa | 0 mm | - | - | - |
| 1777901110 | 21.11° C | - | 1014 hPa | 0 mm | - | - | - |
| 1777900510 | 21.11° C | - | 1013.9 hPa | 0 mm | - | - | - |
* Rain since midnight (hover to see other rain measurements)
** Current wind speed in m/s (hover to see current wind gust speed)